Date,TemperatureHighF,TemperatureAvgF,TemperatureLowF,DewpointHighF,DewpointAvgF,DewpointLowF,HumidityHigh,HumidityAvg,HumidityLow,PressureMaxIn,PressureMinIn,WindSpeedMaxMPH,WindSpeedAvgMPH,GustSpeedMaxMPH,PrecipitationSumIn
2013-2-1,34.0,20.5,13.0,27.0,11.1,3.0,90,67,54,30.14,29.75,20,9,38,0.00
2013-2-2,32.0,22.9,13.0,28.0,14.6,3.0,92,71,50,30.14,29.85,13,4,24,0.01
2013-2-3,31.0,27.9,24.0,27.0,23.6,18.0,92,84,74,29.85,29.71,29,14,47,0.01
2013-2-4,43.0,31.8,20.0,26.0,20.4,13.0,78,63,50,29.96,29.82,15,4,36,0.06
2013-2-5,43.0,39.5,37.0,34.0,29.8,22.0,87,69,45,29.90,29.81,13,6,35,0.01
2013-2-6,51.0,41.1,34.0,32.0,25.2,16.0,75,55,28,30.18,29.88,21,5,39,0.01
2013-2-7,42.0,37.0,33.0,35.0,29.4,22.0,94,75,54,30.20,29.95,4,0,10,0.42
2013-2-8,45.0,37.2,29.0,42.0,33.1,23.0,96,85,57,29.97,29.80,19,6,35,0.48
2013-2-9,55.0,36.9,28.0,23.0,16.4,10.0,78,46,22,30.24,29.96,18,5,36,0.01
2013-2-10,46.0,38.4,33.0,34.0,22.7,18.0,94,55,38,30.29,30.08,13,5,26,0.20
2013-2-11,57.0,44.6,37.0,51.0,28.4,-99.9,96,66,43,30.06,29.92,21,8,45,0.38
2013-2-12,54.0,42.0,34.0,33.0,23.5,19.0,89,49,26,30.02,29.86,24,5,46,0.07
2013-2-13,43.0,36.2,31.0,40.0,34.1,28.0,95,92,84,29.87,29.54,15,5,31,0.49
2013-2-14,49.0,36.5,26.0,29.0,24.3,18.0,89,64,31,29.96,29.74,15,4,27,0.07
2013-2-15,41.0,37.0,33.0,33.0,30.0,28.0,83,76,71,29.98,29.94,7,2,22,0.01
2013-2-20,42.0,34.7,28.0,11.0,7.6,2.0,47,33,21,30.01,29.91,11,5,25,0.00
2013-2-21,61.0,40.0,25.0,25.0,12.0,4.0,62,33,15,30.14,29.96,5,0,11,0.00
2013-2-22,37.0,33.4,30.0,36.0,31.3,27.0,96,92,72,30.15,29.98,11,3,17,0.37
2013-2-23,54.0,34.1,34.0,49.0,6.7,-99.9,96,65,66,29.99,29.78,3,0,12,0.22
2013-2-24,52.0,42.4,35.0,39.0,28.5,21.0,82,59,38,29.97,29.77,14,4,31,0.01
2013-2-25,42.0,32.8,29.0,26.0,22.7,19.0,76,66,51,30.04,29.94,6,1,13,0.01
2013-2-26,39.0,32.6,27.0,38.0,30.4,20.0,96,91,71,29.98,29.49,5,1,16,0.94
2013-2-27,49.0,38.1,33.0,36.0,30.2,26.0,94,74,48,29.70,29.53,18,8,36,0.02
2013-2-28,34.0,29.2,27.0,29.0,24.0,22.0,89,81,73,29.74,29.59,13,7,28,0.02